Flag for Germany Weather past 2 weeks in Ravensburg, Baden-Württemberg, Germany

Now
63 °F

Sprinkles. Mostly cloudy.


Feels Like: 63 °F
Forecast: 60 / 74 °F
Wind: 3 mph from North

Location: Friedrichshafen Airport

Current Time: Jul 30, 2014 at 8:40:13 PM

Latest Report: Jul 30, 2014 at 8:20 PM


Visibility: N/A

Pressure: 29.92 "Hg

Humidity: 94%

Dew point: 61 °F

Location of RavensburgLocation

Historic Weather in Ravensburg — Graph

°F

Ravensburg temperature yesterday

Maximum temperature yesterday: 68 °F (at 2:20 PM)
Minimum temperature yesterday: 59 °F (at 1:50 AM)
Average temperature yesterday: 63 °F

Past Weeks' High & Low Weather Summary

 TemperatureHumidityPressure
High91 °F (Jul 19, 4:50 PM)94% (Jul 16, 5:20 AM)30.21 "Hg (Jul 16, 5:20 AM)
Low52 °F (Jul 25, 5:50 AM)24% (Jul 19, 4:50 PM)29.77 "Hg (Jul 28, 4:50 PM)
Average67 °F70%29.97 "Hg
* Reported Jul 15 7:20 PM — Jul 30 7:20 PM, Ravensburg, Weather by CustomWeather, © 2014

Note: Actual official high and low records may vary slightly from our data, if they occured in-between our weather recording intervals... More about our weather records

Advertising

Ravensburg weather history for previous 24 hours

 ConditionsComfort  
Time TempWeatherWind HumidityBarometerVisibility
7:20 PM
Jul 30
64 °FLow clouds.8 mph83%29.89 "HgN/A
6:50 PM64 °FLow clouds.8 mph83%29.89 "HgN/A
6:20 PM63 °FMostly cloudy.10 mph88%29.89 "HgN/A
5:50 PM63 °FLight rain. Low clouds.10 mph88%29.89 "HgN/A
5:20 PM63 °FLight rain. Mostly cloudy.9 mph88%29.89 "Hg4 mi
4:50 PM63 °FRain. Mostly cloudy.8 mph88%29.89 "Hg2 mi
4:20 PM63 °FLight rain. Mostly cloudy.6 mph88%29.89 "Hg2 mi
3:50 PM64 °FOvercast.8 mph78%29.89 "HgN/A
3:20 PM64 °FOvercast.8 mph78%29.89 "HgN/A
2:50 PM64 °FMore clouds than sun.10 mph78%29.89 "HgN/A
2:20 PM63 °FMore clouds than sun.10 mph83%29.89 "HgN/A
1:50 PM63 °FSprinkles. Cloudy.10 mph83%29.89 "HgN/A
1:20 PM63 °FLight rain. Cloudy.7 mph83%29.86 "Hg4 mi
12:50 PM63 °FDrizzle. Fog.8 mph83%29.86 "Hg2 mi
12:20 PM63 °FMore clouds than sun.9 mph77%29.86 "HgN/A
11:50 AM63 °FMore clouds than sun.7 mph77%29.86 "HgN/A
11:20 AM63 °FMostly cloudy.9 mph77%29.86 "HgN/A
10:50 AM63 °FOvercast.8 mph77%29.86 "HgN/A
10:20 AM63 °FMostly cloudy.9 mph77%29.86 "HgN/A
9:50 AM63 °FMostly cloudy.8 mph77%29.83 "HgN/A
9:20 AM63 °FOvercast.9 mph77%29.83 "HgN/A
8:50 AM61 °FSprinkles. Low clouds.10 mph83%29.83 "HgN/A
8:20 AM61 °FDrizzle. Fog.8 mph88%29.83 "Hg3 mi
7:50 AM63 °FLight rain. Overcast.9 mph77%29.83 "HgN/A
7:20 AM63 °FMostly cloudy.5 mph77%29.83 "HgN/A
6:50 AM63 °FMostly cloudy.9 mph77%29.83 "HgN/A
6:20 AM61 °FOvercast.8 mph83%29.83 "HgN/A
5:50 AM63 °FMostly cloudy.8 mph77%29.83 "HgN/A
5:20 AM63 °FMostly cloudy.12 mph77%29.83 "HgN/A
4:55 AM61 °FMostly cloudy.9 mph83%29.83 "HgN/A
4:20 AM63 °FPassing clouds.9 mph77%29.83 "HgN/A
3:59 AM63 °FPassing clouds.8 mph77%29.83 "HgN/A
3:20 AM63 °FMostly cloudy.8 mph77%29.83 "HgN/A
2:50 AM63 °FOvercast.8 mph77%29.83 "HgN/A
2:20 AM63 °FOvercast.9 mph77%29.83 "HgN/A
1:50 AM63 °FMostly cloudy.6 mph77%29.83 "HgN/A
1:20 AM63 °FPassing clouds.10 mph77%29.83 "HgN/A
12:50 AM63 °FPassing clouds.10 mph77%29.83 "HgN/A
12:20 AM64 °FMostly cloudy.9 mph73%29.83 "HgN/A
11:50 PM
Jul 29
64 °FOvercast.6 mph78%29.83 "HgN/A
11:20 PM64 °FMostly cloudy.5 mph78%29.83 "HgN/A
10:50 PM64 °FMostly cloudy.6 mph78%29.83 "HgN/A
10:20 PM64 °FMostly cloudy.5 mph78%29.83 "HgN/A
9:50 PM63 °FMostly cloudy.No wind88%29.83 "HgN/A
9:20 PM64 °FMore clouds than sun.2 mph83%29.83 "HgN/A
8:50 PM64 °FOvercast.1 mph83%29.80 "HgN/A
8:20 PM64 °FMore clouds than sun.1 mph83%29.80 "HgN/A
Weather by CustomWeather, © 2014

See weather overviewHow to use our weather pages